GORIZONT 20 [-]

Last updated on Sept. 19, 2020, 5:46 a.m. UTC

1 20659U 90054A   20262.52023420 -.00000271  00000-0  00000-0 0  9991
2 20659  14.6176 352.6009 0003954 144.6498 140.8107  1.00243835110662
UTC
Height (km)
Latitude
Longitude
Inclination
Orbital Period
UTC large
Height (km)
Speed (km/s)
/
Latitude / Longitude
Inclination (degrees)
Orbital Period (minutes)
Azimuth
Elevation
Range (km)
Doppler Factor
iOS Compass Heading
iOS Angle

Next 30 passes for location: Hong Kong

Rise time Rise Azimuth (degrees) Set time Set Azimuth (degrees) Duration Max altitude (degrees)

No matching passes for this satellites